Temperature
21 21 21 21 21 21 20 20 20 20 20 20 20 19 19 19 19 19 19 19 19 19 19 19 19 18 18 18 18 18 18 18 18 18 18 18 18 18 18 18 18 18 18
21 21 21 21 21 21 21 20 20 20 20 20 20 19 19 19 19 19 19 19 19 19 19 19 19 19 18 18 18 18 18 18 18 18 18 18 18 18 18 18 18 18 18
21 21 21 21 21 21 21 20 20 20 20 20 19 19 19 19 19 19 19 19 19 19 18 18 19 18 19 18 18 18 18 18 18 18 18 18 17 17 18 18 18 18 18
21 21 21 21 21 21 20 20 20 20 20 19 19 19 19 19 19 19 19 19 18 18 18 18 18 18 18 18 18 18 18 18 18 18 18 18 18 17 17 17 18 18 18
21 21 21 21 21 21 20 20 20 20 20 19 19 19 19 19 19 19 19 19 18 18 18 18 18 18 18 18 18 18 18 18 18 18 18 18 18 18 17 17 17 17 17
21 21 21 20 20 21 20 20 20 20 20 19 19 19 19 19 19 19 18 18 18 18 18 18 18 18 18 18 18 18 18 18 18 18 18 18 18 18 17 17 17 17 17
20 21 20 20 20 20 20 20 20 20 19 19 19 19 19 18 18 18 18 18 18 18 18 18 18 18 18 18 18 18 18 18 18 18 18 18 18 17 17 17 17 17 17
20 21 21 21 21 20 20 20 20 20 19 19 19 19 18 18 18 18 18 18 18 18 18 18 18 18 17 17 17 18 18 18 17 17 17 17 17 17 17 17 17 16 16
20 20 20 20 20 20 20 20 20 20 19 19 19 19 18 18 18 18 18 18 18 18 18 18 17 17 17 17 17 17 17 17 17 17 17 17 17 17 17 17 16 16 16
20 20 20 20 20 20 20 19 19 19 19 19 18 18 18 18 18 18 18 18 18 17 17 17 17 17 17 17 17 17 17 17 17 17 17 17 17 17 17 16 16 16 16
20 20 20 20 20 19 19 19 19 19 19 19 18 18 18 17 17 17 17 17 17 17 17 17 17 17 17 17 17 17 17 16 16 16 16 16 16 16 16 16 16 16 16
20 20 20 19 19 19 19 19 19 19 19 18 18 18 18 17 17 17 17 17 17 17 17 17 17 17 17 17 16 16 16 16 16 16 16 16 16 16 16 16 16 16 15
19 19 19 19 19 19 19 19 18 18 18 18 18 18 17 17 17 17 17 17 17 17 17 16 16 16 16 16 16 16 16 16 16 15 15 15 15 16 16 15 15 15 15
19 19 19 19 19 19 18 18 18 18 18 17 17 17 17 17 17 17 17 16 16 16 16 16 16 16 16 16 16 16 15 15 15 15 15 15 15 15 15 15 15 15 14
19 19 19 19 19 18 18 18 18 18 17 17 17 17 17 16 16 16 16 16 16 16 16 16 16 15 15 15 15 15 15 15 15 15 15 15 15 15 14 14 14 14 14
18 18 19 19 19 18 18 18 18 17 17 17 17 17 16 16 16 16 16 16 15 15 15 15 15 15 15 15 15 15 15 15 15 15 14 14 14 14 14 14 14 14 14
19 19 19 19 19 18 18 18 18 18 17 17 17 16 16 16 16 16 15 15 15 15 15 15 15 14 14 14 14 14 14 14 14 14 14 14 14 14 14 14 14 14 13
19 19 19 19 19 18 18 18 17 17 17 16 16 16 16 15 15 15 15 15 15 15 14 14 14 14 14 14 14 14 14 14 14 14 14 14 14 14 13 13 13 13 13
19 19 19 18 18 18 18 17 17 17 16 16 16 16 15 15 15 15 15 15 15 14 14 14 14 14 14 14 14 14 14 14 14 14 14 13 13 13 13 13 13 13 13
19 18 18 18 18 18 17 17 17 17 16 16 16 16 15 15 15 15 15 14 14 14 14 14 14 14 14 13 13 13 13 13 13 13 13 13 13 13 13 13 13 13 13
18 18 18 17 17 17 17 17 17 16 16 16 16 15 15 15 15 15 15 14 14 14 14 14 13 13 13 13 13 13 13 13 13 13 13 13 13 13 12 12 12 12 12
17 17 17 17 17 17 17 17 16 16 16 15 15 15 15 15 14 14 14 14 14 14 13 13 13 13 13 13 13 13 13 12 12 13 13 12 12 12 12 12 12 12 12
17 17 17 17 16 16 16 16 16 15 15 15 15 15 15 14 14 14 14 14 13 13 13 13 13 13 13 13 13 12 12 12 12 12 12 12 12 12 12 12 12 12 12
17 16 16 16 16 16 15 15 15 15 15 15 15 14 14 14 14 13 13 13 13 13 13 13 12 12 12 12 12 12 12 12 12 12 12 12 12 12 12 12 12 12 11
16 16 16 16 15 15 15 15 15 14 14 14 14 14 14 14 13 13 13 13 13 12 12 12 12 12 12 12 12 12 12 12 12 12 12 12 12 12 12 12 12 11 11
16 16 15 15 15 14 14 14 14 14 14 14 13 13 13 13 13 13 13 12 12 12 12 12 12 12 12 12 12 12 12 11 11 11 11 11 11 11 11 11 11 11 11
Wind_Speed
2 2 3 4 4 3 3 3 3 2 3 2 2 2 1 1 2 2 3 3 3 3 3 2 3 2 2 2 3 2 3 2 1 2 2 2 2 1 0 1 1 2 2
2 3 3 4 4 3 2 2 3 3 2 2 2 2 2 1 1 1 3 3 2 2 3 2 2 2 2 3 2 2 2 1 1 2 1 2 3 2 1 0 1 2 1
5 4 4 4 4 3 3 3 2 3 2 3 3 3 3 3 3 3 2 2 2 2 2 2 2 2 2 2 1 1 2 1 0 1 2 1 1 2 2 1 1 1 1
5 4 4 4 4 3 3 2 2 2 2 3 3 4 3 1 0 0 1 2 2 2 1 2 1 1 1 1 1 1 1 2 1 0 0 1 2 1 1 2 2 2 2
6 5 5 5 4 4 4 3 3 2 2 3 4 4 3 1 1 1 2 2 2 2 2 1 1 1 1 1 1 1 1 1 1 1 1 1 1 1 1 2 2 2 2
5 5 4 4 4 3 3 3 3 2 2 3 3 4 4 3 2 1 1 1 1 2 2 2 1 1 0 1 1 1 1 1 1 1 1 1 1 2 2 2 1 2 2
5 5 5 5 5 4 4 3 4 2 2 3 3 3 3 3 3 2 1 0 1 1 2 1 1 1 0 0 1 1 1 1 1 1 1 1 1 2 2 2 1 1 2
5 5 6 6 5 5 4 4 4 3 2 2 2 2 2 2 1 2 1 1 1 1 1 0 1 1 1 1 1 1 0 1 1 1 1 1 1 1 2 2 2 1 2
5 5 5 5 5 5 4 4 4 3 2 2 2 1 1 1 1 1 1 1 0 0 0 1 1 1 2 1 2 1 1 1 1 1 1 0 0 0 1 1 2 2 2
4 4 4 4 4 4 3 3 4 3 2 2 2 1 1 1 1 1 1 1 0 1 1 1 1 2 2 2 2 1 1 2 1 1 2 1 1 1 1 1 1 1 2
5 5 4 3 3 3 4 4 3 3 2 2 2 1 1 1 1 1 0 0 0 1 0 0 1 1 1 1 1 1 2 2 2 2 2 1 1 1 1 1 1 0 1
5 4 4 3 3 3 3 4 4 3 3 3 2 2 2 2 1 0 0 0 0 0 0 0 1 1 0 1 1 1 1 1 1 1 1 1 1 1 1 1 0 0 1
4 4 3 3 3 3 3 3 3 3 3 3 3 2 2 2 1 1 0 1 1 1 1 0 0 1 0 1 1 1 1 1 1 1 1 0 1 1 0 1 0 0 0
5 4 3 3 3 3 3 3 3 3 3 3 3 2 2 2 1 1 0 0 1 1 0 0 0 1 1 0 1 2 1 1 1 1 1 1 1 1 1 1 1 0 0
5 5 5 4 4 4 4 3 3 3 3 3 3 3 2 1 1 1 1 1 1 1 0 0 1 1 1 0 1 2 2 1 0 0 1 1 1 2 2 1 2 1 1
6 6 5 5 4 5 5 4 4 3 3 3 3 3 2 2 2 2 1 1 1 0 1 0 0 1 1 1 1 2 1 1 1 1 2 2 1 2 2 2 3 2 2
6 6 6 6 5 4 5 5 4 3 3 3 3 3 3 2 2 2 1 1 1 1 0 0 0 1 2 1 1 2 2 1 1 2 2 2 1 1 2 2 2 2 2
5 5 4 4 3 3 4 4 4 3 3 3 3 3 3 3 2 2 2 2 1 1 1 1 1 1 2 2 2 1 1 1 1 2 2 2 2 2 1 1 1 1 2
4 4 4 3 3 3 3 3 4 4 4 4 4 4 4 4 3 3 3 2 2 2 2 2 2 2 3 3 3 2 1 1 2 2 2 2 2 2 2 2 1 1 2
2 2 2 2 2 2 3 3 4 4 5 5 5 4 4 4 4 4 3 2 2 2 2 2 2 2 3 3 3 2 2 2 2 2 2 2 2 2 3 3 2 2 3
2 2 3 2 2 2 3 3 2 4 5 3 3 3 4 4 4 3 2 2 2 2 1 2 2 2 3 3 4 3 2 3 3 2 2 2 3 3 4 4 3 4 3
2 3 3 2 0 1 3 2 2 3 2 2 2 3 3 3 3 3 3 2 2 2 2 2 2 3 3 3 4 4 4 3 3 3 3 3 3 3 3 3 4 4 2
3 2 3 2 1 1 2 1 2 2 1 1 3 3 2 2 3 3 3 2 2 2 3 2 3 3 3 3 4 4 4 4 3 3 4 4 3 3 3 3 3 3 2
2 2 3 2 1 1 0 1 1 1 0 2 3 2 2 2 2 2 3 3 3 3 3 3 3 3 3 3 2 2 3 3 3 3 3 3 3 2 3 2 2 2 3
2 2 3 2 1 1 0 1 1 1 1 1 2 2 2 2 2 2 3 4 4 5 5 4 4 4 4 5 5 3 3 3 3 2 1 1 1 2 2 2 2 2 2
2 2 2 1 1 1 0 1 1 0 1 1 2 2 1 1 1 1 2 2 3 4 6 6 6 5 6 5 4 5 5 4 3 2 2 2 3 3 3 3 3 3 3
Wind_Direction
190 150 142 132 121 114 115 125 117 104 97 89 93 82 65 38 36 42 50 53 65 77 88 83 70 74 84 93 103 104 92 82 99 85 43 20 32 46 288 230 231 242 244
157 154 145 136 137 138 132 131 127 121 122 120 121 122 108 77 55 33 41 39 55 77 93 91 88 86 91 85 88 113 116 94 86 110 84 14 357 0 4 338 247 264 265
186 175 162 153 143 141 152 168 156 141 131 112 94 82 63 45 37 29 23 14 39 72 89 96 96 92 104 114 122 139 147 169 48 104 143 143 240 321 345 5 0 337 306
184 177 168 162 158 160 150 150 152 140 130 122 117 118 115 109 290 345 3 7 32 57 81 93 103 111 117 134 173 144 156 156 205 180 147 188 178 182 317 339 356 351 340
177 179 181 172 165 154 146 144 142 138 134 133 137 129 119 134 85 54 41 18 12 27 47 75 95 107 115 145 139 123 143 159 179 194 181 154 131 170 190 288 331 349 340
174 173 158 146 153 149 144 143 141 144 138 138 143 146 150 150 122 83 50 11 7 9 15 41 49 88 127 178 172 154 160 162 163 183 179 176 177 179 174 215 285 317 321
172 169 162 161 162 160 161 155 154 161 146 147 167 170 173 170 175 183 180 157 357 342 341 4 26 30 179 191 142 126 137 145 160 185 188 189 206 184 167 171 222 287 309
166 172 176 172 170 172 165 163 168 173 157 158 176 172 172 176 203 205 179 180 223 262 324 41 27 25 50 105 114 101 108 112 160 185 164 169 210 176 169 172 171 264 309
165 161 163 166 172 176 173 175 171 172 173 177 176 163 163 173 195 201 158 171 263 268 72 73 45 33 41 66 87 72 48 69 65 70 80 76 7 148 171 175 181 182 248
157 154 161 165 174 172 166 163 167 175 169 154 160 146 148 162 171 149 166 164 167 30 57 44 44 38 37 57 76 67 55 68 52 70 77 56 36 62 93 143 161 185 199
168 168 168 161 156 149 150 149 151 144 139 145 136 118 124 124 116 146 197 225 33 66 65 88 56 30 15 44 79 77 80 87 67 61 81 59 51 70 70 94 107 126 184
161 158 152 147 140 138 148 152 150 158 173 168 152 151 149 134 125 190 242 148 103 96 192 162 136 206 253 70 101 106 99 118 112 96 92 58 74 69 72 112 132 237 239
146 140 141 156 164 160 155 143 149 163 171 159 157 151 149 155 165 228 251 158 139 92 63 91 180 247 236 171 146 138 143 154 158 145 139 156 116 83 66 100 106 264 296
158 159 172 185 187 178 164 152 158 161 160 159 165 158 176 180 184 185 160 174 148 140 163 235 286 295 296 206 170 159 164 160 161 177 193 192 176 200 211 180 197 178 121
168 178 187 192 190 182 174 171 174 177 176 173 171 183 187 180 164 155 154 141 165 195 190 61 343 315 324 279 158 165 168 178 207 283 263 218 203 208 213 212 206 185 186
191 192 191 190 194 192 189 190 192 190 175 176 199 197 182 176 184 187 176 162 175 160 77 119 271 307 307 342 157 158 182 194 215 256 275 261 265 263 255 249 231 207 203
199 198 198 196 200 201 197 203 207 186 175 192 204 198 195 201 206 196 177 189 197 185 158 297 273 288 297 302 243 204 185 210 230 245 261 269 278 242 260 282 286 263 231
193 194 196 198 205 202 198 197 191 181 178 197 212 206 200 205 200 186 201 217 202 195 210 237 245 278 299 289 265 228 189 239 249 249 240 237 260 251 223 252 308 295 271
196 197 193 193 189 193 192 181 183 186 192 203 211 211 204 204 197 201 211 218 198 207 223 233 232 248 286 289 264 209 201 246 274 270 257 234 246 247 191 175 236 289 299
164 170 160 149 168 193 176 171 193 199 216 217 216 210 204 205 213 211 210 220 206 216 225 247 249 242 261 276 268 229 216 235 259 272 268 249 246 241 194 187 200 240 265
143 137 130 140 180 179 153 170 208 230 239 230 215 212 211 209 214 211 207 204 208 211 225 251 276 271 268 269 257 232 220 229 241 255 266 268 257 246 223 206 213 232 239
124 127 130 134 174 151 148 176 244 257 247 227 222 221 224 221 212 206 215 204 194 211 243 256 284 288 283 271 255 233 228 226 229 245 253 259 253 248 241 227 231 226 216
139 135 136 126 68 88 130 166 272 291 241 212 226 228 227 222 213 205 214 216 201 210 237 247 266 286 289 277 259 242 239 237 237 247 251 266 268 261 258 249 231 210 210
143 141 133 127 91 359 82 214 298 329 333 243 245 226 215 229 235 219 214 218 221 223 227 232 252 275 284 280 267 249 245 246 246 259 269 271 271 259 260 261 247 228 219
150 146 157 165 192 226 292 334 356 52 23 314 274 249 231 227 242 248 241 234 232 222 216 226 230 237 258 262 246 240 249 245 234 231 266 287 293 288 283 271 255 238 229
142 136 155 169 200 217 296 319 310 161 137 331 318 267 239 226 224 259 305 307 261 246 232 229 229 245 245 252 247 249 255 255 213 185 239 258 259 257 257 254 255 248 244
Height
1515 1516 1517 1518 1519 1520 1521 1521 1522 1523 1524 1524 1525 1525 1526 1526 1526 1526 1526 1526 1527 1527 1527 1527 1527 1528 1528 1528 1529 1529 1530 1530 1530 1530 1530 1530 1531 1531 1531 1531 1531 1531 1532
1514 1515 1516 1518 1519 1520 1521 1522 1522 1523 1524 1525 1525 1526 1526 1527 1527 1527 1527 1527 1527 1528 1528 1528 1528 1528 1528 1529 1529 1529 1529 1530 1530 1530 1530 1530 1531 1530 1531 1531 1531 1531 1531
1512 1514 1515 1517 1518 1520 1521 1522 1522 1523 1524 1525 1526 1526 1527 1527 1527 1527 1528 1528 1528 1528 1528 1528 1528 1528 1528 1529 1529 1529 1529 1529 1530 1530 1531 1530 1530 1530 1530 1530 1530 1530 1530
1511 1512 1514 1515 1517 1519 1520 1521 1522 1523 1524 1525 1526 1526 1527 1527 1527 1528 1528 1528 1528 1528 1528 1528 1528 1528 1528 1528 1528 1529 1529 1529 1529 1529 1530 1530 1530 1530 1529 1530 1529 1529 1529
1509 1511 1512 1514 1516 1518 1520 1521 1522 1523 1524 1524 1525 1526 1526 1527 1527 1528 1528 1528 1528 1528 1528 1528 1528 1528 1527 1527 1528 1528 1528 1528 1528 1528 1528 1529 1529 1529 1528 1528 1528 1528 1528
1508 1509 1511 1514 1515 1517 1519 1520 1521 1522 1523 1524 1525 1525 1526 1526 1527 1527 1527 1527 1528 1528 1528 1527 1527 1527 1527 1527 1527 1527 1527 1527 1527 1527 1527 1527 1527 1527 1527 1527 1526 1526 1526
1506 1508 1510 1512 1513 1515 1517 1519 1520 1521 1522 1523 1524 1525 1525 1526 1526 1526 1526 1527 1527 1527 1527 1527 1526 1526 1526 1526 1526 1526 1526 1526 1526 1526 1526 1526 1526 1526 1526 1525 1525 1525 1524
1505 1507 1508 1510 1512 1514 1516 1518 1519 1520 1521 1522 1523 1524 1525 1525 1525 1525 1525 1526 1526 1526 1525 1525 1525 1525 1525 1524 1524 1524 1524 1524 1524 1524 1524 1524 1524 1524 1524 1524 1524 1523 1523
1504 1506 1508 1509 1511 1513 1514 1516 1518 1519 1520 1521 1522 1522 1523 1524 1524 1524 1524 1524 1524 1524 1524 1524 1524 1524 1523 1523 1523 1523 1523 1523 1523 1523 1523 1523 1523 1522 1522 1523 1523 1523 1521
1503 1505 1507 1508 1510 1512 1513 1515 1517 1517 1518 1519 1520 1521 1521 1522 1522 1523 1523 1523 1523 1523 1523 1523 1523 1522 1522 1522 1522 1521 1521 1521 1521 1521 1521 1521 1521 1521 1521 1521 1521 1521 1520
1501 1504 1506 1508 1509 1511 1512 1513 1515 1516 1517 1518 1519 1520 1520 1520 1521 1521 1521 1521 1520 1521 1521 1521 1521 1520 1520 1520 1520 1520 1520 1520 1520 1520 1520 1520 1520 1520 1519 1519 1519 1519 1519
1501 1503 1505 1507 1508 1509 1510 1511 1513 1514 1515 1516 1517 1518 1518 1518 1519 1519 1519 1519 1518 1519 1519 1519 1519 1518 1518 1518 1517 1518 1518 1518 1518 1518 1518 1518 1518 1518 1517 1517 1517 1517 1516
1500 1503 1504 1505 1507 1508 1509 1509 1511 1512 1514 1515 1516 1516 1516 1517 1517 1517 1517 1517 1517 1517 1517 1517 1516 1516 1516 1515 1515 1516 1516 1516 1516 1516 1516 1516 1516 1516 1515 1515 1514 1514 1514
1499 1501 1503 1504 1506 1507 1508 1508 1509 1511 1512 1513 1513 1513 1514 1514 1515 1515 1515 1515 1515 1515 1515 1515 1514 1514 1513 1513 1513 1513 1514 1514 1514 1514 1514 1514 1514 1514 1513 1513 1512 1512 1512
1498 1500 1501 1503 1504 1505 1506 1507 1507 1508 1510 1510 1511 1511 1512 1512 1513 1513 1513 1513 1513 1513 1513 1512 1512 1512 1511 1511 1511 1511 1511 1512 1512 1512 1512 1511 1511 1511 1511 1511 1510 1509 1509
1495 1497 1499 1501 1502 1503 1504 1505 1505 1506 1507 1508 1508 1509 1510 1510 1510 1511 1511 1511 1511 1511 1510 1510 1509 1509 1509 1509 1509 1509 1509 1509 1509 1509 1509 1509 1509 1509 1509 1508 1508 1507 1506
1492 1494 1496 1497 1499 1501 1502 1502 1503 1504 1505 1506 1506 1507 1507 1508 1508 1508 1508 1508 1508 1508 1508 1507 1507 1506 1506 1506 1506 1506 1506 1506 1506 1506 1506 1506 1506 1506 1506 1506 1505 1504 1504
1490 1492 1494 1496 1497 1499 1500 1501 1501 1502 1502 1503 1503 1504 1504 1505 1505 1505 1505 1506 1505 1505 1505 1504 1504 1504 1504 1504 1503 1503 1503 1503 1503 1503 1503 1503 1503 1503 1503 1502 1502 1501 1500
1489 1491 1493 1494 1496 1497 1497 1498 1499 1499 1500 1500 1501 1501 1502 1502 1502 1502 1502 1502 1502 1502 1502 1502 1502 1501 1501 1501 1501 1501 1500 1500 1500 1501 1501 1500 1500 1500 1500 1499 1498 1498 1497
1488 1489 1491 1493 1494 1494 1495 1496 1496 1496 1497 1497 1498 1498 1499 1499 1500 1499 1499 1499 1499 1499 1499 1499 1499 1499 1499 1499 1499 1499 1498 1497 1497 1497 1497 1497 1497 1497 1496 1496 1495 1494 1494
1487 1488 1489 1491 1492 1493 1493 1493 1494 1494 1494 1495 1495 1496 1496 1496 1497 1497 1497 1496 1496 1496 1496 1496 1496 1496 1496 1496 1496 1496 1495 1494 1494 1493 1493 1493 1493 1493 1493 1492 1492 1491 1491
1485 1487 1488 1489 1490 1491 1491 1491 1491 1492 1492 1492 1492 1493 1493 1493 1493 1493 1493 1493 1493 1493 1493 1493 1493 1493 1493 1493 1493 1492 1492 1491 1491 1490 1490 1490 1490 1489 1489 1489 1488 1488 1488
1484 1485 1487 1487 1488 1489 1489 1489 1489 1489 1489 1489 1489 1489 1489 1489 1490 1490 1490 1490 1489 1489 1490 1490 1489 1489 1490 1490 1489 1489 1488 1488 1487 1487 1486 1486 1486 1486 1485 1485 1484 1484 1484
1483 1484 1485 1485 1486 1486 1487 1487 1487 1487 1486 1486 1485 1485 1485 1486 1486 1487 1487 1487 1486 1487 1486 1486 1486 1486 1486 1486 1486 1485 1484 1484 1484 1483 1483 1482 1482 1482 1481 1480 1480 1480 1480
1482 1483 1483 1484 1484 1484 1485 1485 1485 1484 1483 1482 1481 1481 1482 1482 1482 1483 1483 1483 1484 1484 1483 1483 1483 1483 1482 1482 1482 1481 1481 1480 1480 1479 1478 1478 1478 1477 1477 1477 1476 1476 1476
1481 1481 1482 1483 1483 1483 1482 1483 1482 1482 1480 1479 1478 1477 1478 1478 1479 1479 1479 1479 1480 1480 1480 1480 1480 1479 1479 1479 1479 1478 1477 1477 1476 1475 1474 1473 1473 1473 1473 1472 1472 1471 1471